Startseite
Über Mich
AHP4
Galerie
Sehschlangen
Tourenbuch
Bookmarks
Elektronik
Bewertung
Geschichten
[Tagesmessung] [Jahreswerte] [Information]

Messwerte vom 21.01.2022

Die letzten Messwerte von 23:58:48 Uhr:
KategorieMesswert
Temperatur [°C]5
Luftdruck [mBar]1008
Sonneneinstrahlung0
Wind [km/h]8 aus West
Niederschlag [l/m²]0
rel.Luftfeucht.96.6%
CO2 [ppm]875

Diagramme
Messwerte vom 21.01.2022
Tagesaggregation
KategorieMinimumMaximumSchnittSumme
Temperatur [°C]-550.6271
Luftdruck [mBar]100810131010.1875
Sonneneinstrahlung24168.6833
Wind [km/h]27
rF [%]79.596.693.71
Niederschlag [l/m²]0.7725
CO2 [ppm]404965619.9
Einordnung alsFrosttag
Kalter Tag

Messungen an benachbarten Tagen: Zur Jahresaggregation 2022
Tabelle aller Messwerte
UhrzeitTemperatur [°C]Luftdruck [mBar]SonneWind [km/h]RichtungRegen [l/m²]rF [%]CO2 [ppm]
00:01:47 -3 1010 0 1 SW 0 90.2 536
00:04:47 -3 1009 0 1 NW 0 90.1 536
00:07:43 -3 1010 0 1 S 0 90.1 541
00:10:47 -4 1009 0 2 W 0 90.2 533
00:13:47 -4 1010 0 1 SW 0 90.2 533
00:16:49 -4 1010 0 4 NW 0 90.2 527
00:19:49 -4 1010 0 1 SO 0 90.2 528
00:22:47 -4 1010 0 1 SW 0 90.4 529
00:25:45 -4 1010 0 0 W 0 90.4 530
00:28:49 -4 1010 0 2 SW 0 90.3 532
00:31:47 -4 1010 0 2 W 0 90.4 536
00:34:47 -4 1010 0 3 SW 0 90.5 536
00:37:47 -4 1010 0 4 W 0 90.6 533
00:40:46 -4 1010 0 2 S 0 90.5 529
00:43:47 -4 1010 0 1 W 0 90.5 530
00:46:45 -4 1010 0 0 W 0 90.6 529
00:49:47 -4 1010 0 4 NW 0 90.6 530
00:52:46 -4 1010 0 3 NW 0 90.7 533
00:55:48 -4 1010 0 2 W 0 90.8 525
00:58:48 -4 1010 0 1 SW 0 90.8 526
01:01:46 -4 1010 0 0 SO 0 90.7 526
01:04:48 -4 1010 0 3 W 0 90.8 530
01:07:47 -4 1010 0 1 SW 0 90.8 530
01:10:50 -4 1010 0 3 W 0 90.8 535
01:13:47 -4 1010 0 1 SW 0 90.9 536
01:16:46 -4 1010 0 1 W 0 90.9 527
01:19:47 -4 1010 0 2 SW 0 90.8 524
01:22:47 -4 1010 0 2 SW 0 90.8 527
01:25:48 -4 1010 0 4 SW 0 90.7 530
01:28:47 -4 1010 0 0 SW 0 90.7 527
01:31:47 -4 1010 0 1 S 0 90.6 524
01:34:47 -4 1010 0 2 SW 0 90.6 530
01:37:45 -4 1010 0 2 SW 0 90.6 532
01:40:47 -4 1010 0 1 SW 0 90.7 539
01:43:47 -4 1010 0 3 S 0 90.8 541
01:46:44 -4 1010 0 2 SW 0 91.1 541
01:49:47 -4 1010 0 1 O 0 91.3 538
01:52:47 -4 1010 0 0 SW 0 91.4 532
01:55:46 -4 1010 0 1 SW 0 91.4 536
01:58:47 -4 1010 0 0 S 0 91.6 542
02:01:47 -4 1010 0 0 W 0 91.7 542
02:04:45 -4 1010 0 0 O 0 91.7 546
02:07:48 -4 1010 0 1 W 0 91.7 554
02:10:46 -4 1011 0 1 SW 0 91.8 550
02:13:50 -4 1010 0 0 SW 0 92.2 542
02:16:49 -5 1010 0 0 SW 0 92.3 534
02:19:47 -5 1010 0 0 SW 0 92.4 533
02:22:50 -5 1010 0 1 SW 0 92.5 534
02:25:47 -5 1010 0 1 SW 0 92.8 524
02:28:45 -5 1011 0 0 S 0 93.2 527
02:31:46 -5 1011 0 0 SW 0 93.5 524
02:34:48 -5 1010 0 0 SW 0 93.6 530
02:37:47 -5 1010 0 2 W 0 93.8 536
02:40:46 -5 1010 0 1 S 0 94.2 533
02:43:46 -5 1010 0 1 SW 0 94.5 532
02:46:46 -5 1010 0 1 O 0 94.6 532
02:49:47 -5 1010 0 1 SW 0 94.7 533
02:52:45 -4 1010 0 1 W 0 95 533
02:55:48 -4 1010 0 2 SW 0 95.1 533
02:58:48 -4 1010 0 2 SW 0 95.1 533
03:01:45 -4 1010 0 2 SW 0 95.1 539
03:04:45 -4 1010 0 1 SW 0 95.1 544
03:07:47 -4 1010 0 0 W 0 95.1 545
03:10:46 -4 1010 0 1 SW 0 95.1 538
03:13:47 -4 1010 0 2 W 0 95.4 538
03:16:46 -4 1010 0 2 W 0 95.5 538
03:19:46 -4 1010 0 1 W 0 95.5 542
03:22:45 -5 1010 0 5 W 0 95.5 545
03:25:48 -5 1010 0 0 NW 0 95.6 542
03:28:47 -4 1010 0 2 SW 0 96.1 544
03:31:49 -4 1010 0 2 SW 0 96.4 539
03:34:45 -4 1010 0 2 W 0 96.5 543
03:37:47 -4 1010 0 3 SW 0 96.6 541
03:40:47 -4 1010 0 1 NW 0 96.6 550
03:43:47 -4 1010 0 2 W 0 96.6 548
03:46:46 -4 1010 0 1 N 0 96.6 548
03:49:47 -4 1010 0 0 NO 0 96.6 546
03:52:44 -4 1010 0 1 W 0 96.6 550
03:55:46 -4 1010 0 0 N 0 96.6 547
03:58:48 -4 1010 0 0 NW 0 96.6 548
04:01:48 -4 1010 0 2 S 0 96.6 549
04:04:46 -4 1010 0 1 W 0 96.6 551
04:07:46 -4 1011 0 1 NW 0 96.6 552
04:10:48 -4 1010 0 1 SW 0 96.6 549
04:13:45 -4 1010 0 2 W 0 96.6 548
04:16:47 -4 1010 0 0 SW 0 96.6 551
04:19:47 -4 1010 0 3 NW 0 96.6 550
04:22:45 -4 1010 0 2 S 0 96.6 547
04:25:45 -4 1010 0 3 S 0 96.6 548
04:28:46 -4 1010 0 1 SW 0 96.6 547
04:31:46 -4 1011 0 0 O 0 96.6 553
04:34:46 -4 1010 0 0 S 0 96.6 555
04:37:45 -4 1011 0 0 S 0 96.6 547
04:40:47 -4 1010 0 0 SO 0 96.6 547
04:43:48 -4 1011 0 0 S 0 96.6 556
04:46:49 -4 1011 0 0 SO 0 96.6 550
04:49:47 -4 1010 0 0 SO 0 96.6 550
04:52:47 -4 1010 0 2 W 0 96.6 550
04:55:45 -4 1010 0 2 W 0 96.6 559
04:58:47 -4 1011 0 2 S 0 96.6 562
05:01:46 -4 1010 0 2 W 0 96.6 556
05:04:47 -4 1010 0 2 W 0 96.6 554
05:07:45 -4 1011 0 3 W 0 96.6 550
05:10:50 -4 1010 0 1 SW 0 96.6 551
05:13:47 -4 1010 0 1 W 0 96.6 553
05:16:46 -4 1010 0 2 S 0 96.6 548
05:19:46 -4 1010 0 1 W 0 96.6 554
05:22:49 -4 1010 0 4 W 0 96.6 553
05:25:45 -4 1010 0 0 S 0 96.6 553
05:28:45 -4 1010 0 2 S 0 96.6 554
05:31:49 -4 1010 0 2 NW 0 96.6 556
05:34:49 -3 1010 0 2 SW 0 96.6 556
05:37:47 -3 1010 0 1 NW 0 96.6 556
05:40:47 -3 1010 0 4 NW 0 96.6 562
05:43:46 -3 1010 0 1 S 0 96.6 554
05:46:45 -3 1010 0 3 W 0 96.6 556
05:49:50 -3 1010 0 3 SW 0 96.6 553
05:52:45 -3 1010 0 1 SW 0 96.6 550
05:55:47 -3 1010 0 4 W 0 96.6 548
05:58:46 -3 1010 0 1 SW 0 96.6 550
06:01:46 -3 1010 0 1 S 0 96.6 553
06:04:47 -3 1010 0 3 W 0 96.6 553
06:07:46 -3 1010 0 1 W 0 96.6 557
06:10:46 -3 1010 0 1 W 0 96.6 550
06:13:45 -3 1010 0 1 S 0 96.6 553
06:16:48 -3 1010 0 0 NW 0 96.6 548
06:19:47 -3 1010 0 2 SW 0 96.6 559
06:22:47 -3 1010 0 4 SW 0 96.6 551
06:25:50 -3 1010 0 2 SW 0 96.6 548
06:28:46 -2 1010 0 1 SW 0 96.6 547
06:31:48 -2 1010 0 2 NW 0 96.6 550
06:34:48 -2 1010 0 1 NW 0 96.6 550
06:37:48 -2 1010 0 2 NW 0 96.6 556
06:40:48 -2 1010 0 2 W 0 96.6 559
06:43:48 -2 1010 0 2 W 0 96.6 563
06:46:49 -2 1010 0 4 NW 0 96.6 562
06:49:47 -2 1010 0 6 W 0 96.6 565
06:52:47 -2 1010 0 6 NW 0 96.6 565
06:55:52 -2 1010 0 8 W 0 96.6 562
06:58:48 -2 1010 0 1 SW 0 96.6 571
07:01:45 -2 1010 0 3 N 0 96.6 580
07:04:47 -2 1010 0 2 SW 0 96.6 582
07:07:47 -2 1010 0 4 NW 0 96.6 535
07:10:47 -1 1010 0 3 SW 0 96.6 498
07:13:45 -1 1010 0 5 W 0 96.6 504
07:16:47 -1 1010 0 6 SW 0 96.6 539
07:19:47 -1 1010 0 4 W 0 96.6 583
07:22:46 -1 1010 0 4 W 0 96.6 586
07:25:47 -1 1010 0 2 W 0 96.6 580
07:28:49 -1 1010 0 13 SW 0 96.6 570
07:31:46 -1 1010 0 6 SW 0 96.6 574
07:34:47 -1 1008 0 9 SW 0 96.6 583
07:37:50 -1 1010 0 3 NW 0 96.6 583
07:40:47 -1 1010 0 14 NW 0 96.6 593
07:43:48 -1 1010 0 2 SW 0 96.6 590
07:46:47 -1 1010 0 4 NW 0 96.6 597
07:49:49 -1 1010 4 3 SW 0 96.6 579
07:52:47 -1 1010 6 13 SW 0 96.6 582
07:55:47 -1 1010 10 10 S 0 96.6 574
07:58:46 -1 1010 15 6 W 0 96.6 571
08:01:49 -1 1010 23 3 SW 0 96.6 568
08:04:48 -1 1010 31 5 SW 0 96.6 568
08:07:48 -1 1010 37 6 W 0 96.6 577
08:10:48 -1 1010 48 4 W 0 96.6 580
08:13:46 -1 1010 55 7 SW 0 96.6 579
08:16:51 -1 1010 62 5 W 0 96.6 583
08:19:48 -1 1010 70 7 W 0 96.6 587
08:22:49 -1 1010 76 1 NW 0 96.6 598
08:25:48 0 1010 93 10 NO 0 96.6 607
08:28:47 0 1010 109 8 W 0 96.6 609
08:31:47 0 1010 118 5 S 0 96.6 604
08:34:48 0 1010 124 11 W 0 96.6 603
08:37:49 0 1010 126 10 SW 0 96.6 603
08:40:50 0 1010 124 7 W 0 96.6 600
08:43:48 0 1010 130 6 SW 0 96.6 597
08:46:50 0 1010 125 3 SO 0 96.6 588
08:49:49 0 1010 116 3 W 0 96.6 589
08:52:49 0 1010 126 8 SW 0 96.6 589
08:55:46 0 1010 119 4 O 0 96.6 597
08:58:49 0 1010 135 7 SW 0 96.6 603
09:01:49 0 1010 142 7 SW 0 96.6 609
09:04:46 0 1010 130 8 W 0 96.6 614
09:07:48 0 1010 155 9 S 0 96.6 616
09:10:50 0 1010 139 7 NW 0 96.6 618
09:13:50 0 1010 128 11 SW 0 96.6 613
09:16:48 0 1010 136 6 NW 0 96.6 618
09:19:50 0 1010 166 5 NW 0 96.6 620
09:22:50 0 1010 136 8 NW 0 96.6 610
09:25:47 0 1010 163 7 N 0 96.6 609
09:28:46 0 1011 141 10 W 0 96.6 611
09:31:48 0 1011 169 3 SW 0 96.6 614
09:34:47 0 1011 159 4 SW 0 96.6 620
09:37:47 0 1010 169 10 W 0 96.6 621
09:40:49 1 1010 170 10 W 0 96.6 626
09:43:48 1 1011 182 3 N 0 96.6 630
09:46:48 1 1011 174 13 W 0 96.6 632
09:49:48 1 1010 187 5 NW 0 96.6 636
09:52:49 1 1011 187 9 NO 0 96.6 638
09:55:50 1 1011 193 7 NW 0 96.6 645
09:58:47 1 1011 176 9 SW 0 96.6 644
10:01:51 1 1011 182 10 N 0 96.6 644
10:04:49 1 1011 188 10 N 0 96.6 638
10:07:48 1 1012 177 2 SO 0 96.6 639
10:10:51 1 1011 181 10 W 0 96.6 635
10:13:47 1 1010 183 12 N 0 96.6 631
10:16:48 1 1011 203 5 NW 0 96.6 621
10:19:47 1 1011 196 15 W 0 96.6 618
10:22:48 1 1012 181 3 NW 0 96.6 624
10:25:49 1 1012 169 10 NW 0 96.6 626
10:28:47 1 1012 181 2 N 0 96.6 630
10:31:47 1 1011 189 5 W 0 96.5 632
10:34:48 1 1011 194 6 W 0 96.5 632
10:37:50 1 1011 201 12 NW 0 96.6 639
10:40:46 1 1011 196 6 W 0 96.6 644
10:43:47 1 1011 201 15 NW 0 96.4 633
10:46:48 1 1012 205 8 W 0 96 631
10:49:49 2 1011 205 12 NW 0 95.7 632
10:52:48 2 1011 199 12 W 0 95.2 623
10:55:46 2 1011 201 8 SW 0 95 624
10:58:47 2 1012 208 14 W 0 94.9 622
11:01:48 2 1011 205 8 NW 0 94.6 620
11:04:47 1 1012 204 2 O 0 94.3 630
11:07:47 1 1011 198 7 NW 0 94.2 621
11:10:47 1 1012 203 11 S 0 94.2 626
11:13:48 1 1010 210 15 O 0 94.5 622
11:16:50 1 1012 212 10 NW 0 95.1 623
11:19:47 2 1012 207 6 O 0 94.9 615
11:22:46 2 1012 208 6 NO 0 94.6 618
11:25:50 2 1012 207 8 SO 0 94.5 609
11:28:48 2 1011 205 8 O 0 94.1 609
11:31:48 2 1012 208 9 W 0 93.7 600
11:34:48 2 1012 208 9 SW 0 94.3 601
11:37:50 2 1012 208 11 NW 0 93.5 609
11:40:49 2 1012 212 15 W 0 93.4 606
11:43:47 2 1012 204 6 W 0 93.3 612
11:46:47 2 1012 212 5 NW 0 93.3 607
11:49:50 2 1012 212 2 N 0 92.5 617
11:52:48 2 1011 213 5 NW 0 92.2 618
11:55:49 2 1012 198 9 NW 0 90.7 621
11:58:48 2 1012 203 7 NW 0 89.1 615
12:01:49 2 1012 203 6 NW 0 89.6 611
12:04:48 2 1011 204 13 W 0 89.5 616
12:07:49 2 1012 206 12 NW 0 89.4 612
12:10:50 2 1012 203 9 N 0 86.2 618
12:13:51 3 1012 202 8 NW 0 85.4 618
12:16:52 3 1012 203 10 W 0 83.6 618
12:19:50 3 1012 203 6 NW 0 83 620
12:22:51 3 1013 204 6 NW 0 82.3 615
12:25:47 3 1012 206 3 N 0 82.1 603
12:28:47 3 1012 210 11 W 0 82.9 606
12:31:49 3 1012 203 27 W 0 82 612
12:34:50 3 1011 212 17 NW 0 83 614
12:37:46 3 1012 217 8 N 0 83.1 608
12:40:48 4 1012 216 11 W 0 83.3 607
12:43:46 4 1012 214 12 W 0 82.4 604
12:46:46 4 1012 219 7 S 0 82.3 600
12:49:51 4 1012 219 18 NW 0 82 613
12:52:47 4 1012 215 10 W 0 81.3 615
12:55:47 4 1012 226 21 W 0 81.6 615
12:58:47 4 1012 222 11 N 0 80.1 613
13:01:48 3 1011 218 13 W 0 80.4 612
13:04:46 3 1012 224 15 W 0 81.6 611
13:07:50 3 1013 220 11 NW 0 83.1 620
13:10:48 4 1012 212 9 N 0 83 611
13:13:48 4 1012 222 3 SW 0 82.4 609
13:16:50 4 1012 221 13 W 0 82 604
13:19:49 4 1012 223 4 SW 0 81.8 600
13:22:49 4 1012 205 4 NW 0 81.9 598
13:25:47 4 1012 223 5 W 0 80.8 604
13:28:47 4 1012 219 5 W 0 80.3 612
13:31:46 4 1012 215 11 W 0 80.9 619
13:34:47 4 1011 224 6 N 0 81.5 621
13:37:46 4 1011 219 12 N 0 81.3 627
13:40:48 4 1011 227 13 NW 0 81 630
13:43:49 4 1011 221 8 NW 0 79.5 630
13:46:48 4 1012 221 12 NW 0 79.8 633
13:49:47 4 1012 218 8 O 0 80.3 638
13:52:49 4 1011 218 6 W 0 81.3 636
13:55:48 4 1011 225 11 W 0 81.7 636
13:58:47 4 1011 230 9 W 0 81.6 635
14:01:49 4 1012 218 6 W 0 81.8 630
14:04:48 4 1012 221 6 NO 0 81.6 630
14:07:48 4 1011 232 7 W 0 81.7 623
14:10:50 4 1011 218 14 W 0 82.2 633
14:13:47 4 1011 232 9 S 0 82.1 641
14:16:45 4 1011 233 3 W 0 82.9 641
14:19:47 4 1011 241 13 SW 0 82.7 641
14:22:47 4 1011 241 3 NW 0 81.6 651
14:25:48 4 1010 241 6 W 0 82.2 650
14:28:49 4 1010 241 7 W 0 83 650
14:31:47 4 1011 241 6 SW 0 82.9 651
14:34:48 4 1011 240 6 S 0 84 662
14:37:47 4 1011 240 12 W 0 83.9 665
14:40:48 4 1011 227 4 W 0 83.4 666
14:43:47 4 1011 222 7 W 0 83.9 666
14:46:48 4 1010 223 9 SW 0 84.6 665
14:49:48 4 1011 238 7 W 0 85.2 659
14:52:48 4 1011 234 4 NW 0 85.1 659
14:55:49 4 1011 236 1 SO 0 85.2 657
14:58:46 4 1011 236 4 W 0 85.7 664
15:01:48 4 1011 230 6 W 0 86.2 664
15:04:46 4 1010 233 3 S 0 86.2 653
15:07:48 4 1011 235 4 W 0 86.3 656
15:10:51 4 1011 232 7 NW 0 86.7 656
15:13:48 4 1010 235 4 NW 0 86.8 659
15:16:45 4 1011 226 2 S 0 87 659
15:19:47 4 1011 221 3 W 0 87.2 666
15:22:49 4 1011 207 7 W 0 87.6 674
15:25:47 3 1010 211 4 NW 0 87.9 682
15:28:48 3 1011 210 3 SW 0 88.3 685
15:31:48 3 1011 206 3 W 0 88.9 682
15:34:49 3 1010 208 6 NW 0 89.4 676
15:37:48 3 1011 209 13 W 0 90.1 679
15:40:46 3 1011 202 3 N 0 90.4 676
15:43:50 3 1011 196 6 N 0 91 662
15:46:46 3 1010 197 9 W 0 91.2 659
15:49:47 3 1011 197 4 NW 0 91.7 671
15:52:48 3 1010 195 8 NW 0 91.8 674
15:55:48 3 1011 194 4 SW 0 92.2 679
15:58:47 3 1010 189 4 W 0 92.5 676
16:01:47 2 1010 187 7 W 0 93.2 677
16:04:48 2 1010 182 10 NW 0 93.4 686
16:07:50 2 1010 172 9 SW 0 93.7 688
16:10:50 2 1010 168 13 NW 0 94.2 686
16:13:47 2 1010 165 8 0 94.4 694
16:16:49 2 1010 170 8 S 0 95 694
16:19:47 2 1011 169 3 N 0 95.2 695
16:22:45 2 1010 163 3 SW 0 95.4 691
16:25:48 2 1010 153 5 W 0 95.5 687
16:28:47 2 1010 126 5 NW 0 96 685
16:31:47 2 1011 123 3 SW 0 96.4 692
16:34:48 2 1010 112 2 SW 0 96.6 690
16:37:46 2 1010 118 2 W 0 96.6 685
16:40:46 2 1010 108 3 W 0 96.6 699
16:43:48 2 1010 85 5 SW 0 96.6 691
16:46:47 2 1010 61 8 SW 0 96.6 682
16:49:46 2 1011 21 6 W 0 96.6 495
16:52:47 2 1011 48 3 SW 0 96.6 408
16:55:47 2 1010 26 7 W 0 96.6 407
16:58:47 2 1010 20 3 W 0 96.6 424
17:01:46 2 1010 11 1 SW 0 96.6 422
17:04:48 2 1010 14 1 SW 0 96.6 421
17:07:45 2 1011 5 1 SW 0 96.6 404
17:10:45 2 1010 0 4 W 0 96.6 407
17:13:47 2 1011 0 0 0 96.6 404
17:16:48 2 1011 0 2 SW 0 96.6 404
17:19:49 2 1010 0 1 SW 0 96.6 406
17:22:48 2 1010 0 3 W 0 96.6 407
17:25:48 2 1010 0 3 NW 0 96.6 439
17:28:47 2 1010 0 4 W 0 96.6 442
17:31:46 2 1010 0 3 SW 0 96.6 447
17:34:45 2 1010 0 2 SW 0 96.6 451
17:37:47 2 1010 0 4 SW 0 96.6 454
17:40:45 2 1010 0 7 S 0 96.6 456
17:43:47 2 1010 0 4 W 0 96.6 451
17:46:47 2 1010 0 1 NW 0 96.6 462
17:49:48 2 1010 0 4 SW 0 96.6 468
17:52:45 2 1010 0 4 W 0 96.6 477
17:55:47 2 1009 0 2 SO 0 96.6 480
17:58:46 2 1010 0 6 SO 0 96.6 485
18:01:48 2 1010 0 4 SO 0 96.6 483
18:04:47 2 1010 0 2 W 0 96.6 475
18:07:48 2 1010 0 3 SW 0 96.6 480
18:10:48 2 1010 0 10 W 0 96.6 486
18:13:48 2 1010 0 5 SO 0 96.6 489
18:16:46 2 1010 0 3 W 0 96.6 495
18:19:45 2 1010 0 5 W 0 96.6 498
18:22:46 2 1010 0 4 S 0 96.6 504
18:25:48 2 1010 0 2 W 0 96.6 494
18:28:45 2 1010 0 7 W 0 96.6 491
18:31:48 2 1010 0 4 NW 0 96.6 486
18:34:48 2 1010 0 3 SW 0 96.6 490
18:37:46 3 1010 0 1 SW 0 96.6 500
18:40:46 3 1010 0 0 O 0 96.6 497
18:43:48 3 1010 0 2 S 0 96.6 510
18:46:47 3 1010 0 6 W 0 96.6 509
18:49:47 3 1010 0 3 SW 0 96.6 518
18:52:47 3 1010 0 7 W 0 96.6 524
18:55:46 3 1010 0 12 W 0 96.6 518
18:58:46 3 1010 0 2 W 0 96.6 528
19:01:47 3 1010 0 4 SW 0 96.6 530
19:04:48 3 1010 0 5 NW 0 96.6 533
19:07:46 3 1010 0 3 W 0 96.6 530
19:10:46 3 1010 0 5 W 0 96.6 550
19:13:47 3 1010 0 5 NW 0 96.6 573
19:16:48 3 1010 0 2 SW 0 96.6 590
19:19:47 3 1010 0 6 SW 0 96.6 576
19:22:48 3 1010 0 4 W 0 96.6 562
19:25:49 3 1010 0 4 SW 0 96.6 556
19:28:47 3 1010 0 6 S 0 96.6 562
19:31:48 3 1010 0 7 W 0 96.6 568
19:34:46 3 1010 0 5 S 0 96.6 578
19:37:48 3 1010 0 2 W 0 96.6 570
19:40:47 3 1009 0 7 SO 0 96.6 568
19:43:46 3 1009 0 4 SO 0 96.6 569
19:46:49 3 1010 0 10 NW 0 96.6 576
19:49:48 3 1009 0 2 SW 0 96.6 585
19:52:48 3 1010 0 10 NW 0 96.6 591
19:55:48 3 1009 0 8 W 0 96.6 600
19:58:46 3 1010 0 5 NW 0.2575 96.6 609
20:01:48 3 1010 0 6 W 0 96.6 620
20:04:47 3 1010 0 5 W 0 96.6 635
20:07:46 3 1009 0 3 S 0 96.6 650
20:10:49 3 1009 0 3 NW 0 96.6 661
20:13:47 3 1009 0 3 W 0 96.6 661
20:16:47 3 1010 0 4 W 0 96.6 667
20:19:47 3 1009 0 6 SW 0 96.6 688
20:22:48 3 1010 0 2 W 0 96.6 687
20:25:47 3 1009 0 0 NW 0 96.6 685
20:28:46 3 1009 0 1 SW 0 96.6 691
20:31:46 3 1010 0 3 W 0 96.6 702
20:34:46 3 1009 0 3 W 0 96.6 711
20:37:46 3 1009 0 9 W 0 96.6 718
20:40:50 3 1009 0 1 W 0 96.6 723
20:43:47 3 1010 0 4 SO 0 96.6 730
20:46:44 3 1009 0 5 S 0 96.6 737
20:49:46 3 1010 0 4 W 0 96.6 738
20:52:46 3 1009 0 5 W 0 96.6 736
20:55:46 3 1009 0 4 W 0 96.6 733
20:58:46 3 1009 0 6 S 0 96.6 776
21:01:46 3 1009 0 3 W 0 96.6 778
21:04:48 3 1009 0 6 W 0 96.6 779
21:07:49 3 1009 0 10 S 0 96.6 790
21:10:47 3 1009 0 4 W 0 96.6 808
21:13:49 3 1009 0 1 SW 0.2575 96.6 814
21:16:48 3 1009 0 8 SW 0 96.6 813
21:19:48 3 1009 0 4 SW 0 96.6 814
21:22:46 3 1009 0 5 W 0 96.6 828
21:25:45 3 1009 0 5 W 0 96.6 838
21:28:45 4 1009 0 5 W 0 96.6 837
21:31:48 4 1009 0 9 SW 0 96.6 840
21:34:47 4 1009 0 3 O 0 96.6 838
21:37:48 4 1009 0 10 SW 0 96.6 846
21:40:47 4 1009 0 7 SW 0 96.6 854
21:43:48 4 1009 0 4 NW 0 96.6 864
21:46:49 4 1008 0 9 W 0 96.6 876
21:49:47 4 1009 0 6 NO 0 96.6 866
21:52:47 4 1009 0 5 NW 0 96.6 879
21:55:45 4 1009 0 4 S 0 96.6 893
21:58:48 4 1009 0 8 SW 0 96.6 903
22:01:47 4 1009 0 7 W 0 96.6 908
22:04:48 4 1009 0 5 S 0 96.6 905
22:07:47 4 1008 0 7 W 0 96.6 904
22:10:47 4 1009 0 8 W 0 96.6 890
22:13:50 4 1009 0 7 NW 0 96.6 900
22:16:48 4 1009 0 11 NW 0 96.6 904
22:19:48 4 1009 0 3 W 0 96.6 922
22:22:45 4 1009 0 6 W 0 96.6 921
22:25:46 4 1009 0 9 W 0 96.6 927
22:28:49 4 1009 0 8 SW 0 96.6 930
22:31:47 5 1009 0 8 NW 0 96.6 937
22:34:50 5 1009 0 10 S 0 96.6 940
22:37:49 5 1008 0 6 SW 0 96.6 933
22:40:53 5 1009 0 8 NW 0 96.6 944
22:43:45 5 1009 0 4 S 0 96.6 937
22:46:49 5 1008 0 11 NW 0 96.6 940
22:49:50 5 1009 0 6 SW 0 96.6 943
22:52:47 5 1008 0 6 NW 0 96.6 957
22:55:47 5 1009 0 7 N 0 96.6 956
22:58:47 5 1008 0 8 S 0 96.6 965
23:01:48 5 1008 0 14 SW 0 96.6 940
23:04:47 5 1009 0 5 NW 0 96.6 931
23:07:45 5 1008 0 4 W 0 96.6 911
23:10:48 5 1008 0 2 SW 0 96.6 936
23:13:46 5 1008 0 5 W 0 96.6 934
23:16:49 5 1008 0 9 NW 0 96.6 918
23:19:47 5 1009 0 8 NW 0 96.6 919
23:22:49 5 1008 0 11 NW 0.2575 96.6 921
23:25:46 5 1009 0 18 W 0 96.6 919
23:28:49 5 1009 0 3 NW 0 96.6 876
23:31:49 5 1009 0 15 NW 0 96.6 865
23:34:47 5 1009 0 9 NW 0 96.6 865
23:37:48 5 1008 0 5 W 0 96.6 861
23:40:48 5 1009 0 17 NW 0 96.6 847
23:43:48 5 1009 0 8 NW 0 96.6 834
23:46:49 5 1009 0 2 S 0 96.6 829
23:49:45 5 1008 0 9 S 0 96.6 829
23:52:47 5 1008 0 6 W 0 96.6 844
23:55:47 5 1009 0 5 SW 0 96.6 862
23:58:48 5 1008 0 8 W 0 96.6 875

Letzte Änderung : 04-Jan-2022
Copyright Jens Köhler, Wolfsburg, Obere Dorfstraße 10d